Time,TemperatureF,DewpointF,PressureIn,WindDirection,WindDirectionDegrees,WindSpeedMPH,WindSpeedGustMPH,Humidity,HourlyPrecipIn,Conditions,Clouds,dailyrainin,SoftwareType,DateUTC
2013-02-16 00:05:00,43.0,37.6,30.39,West,270,0.0,0.0,81,0.00,,,0.00,pywws,2013-02-16 05:05:00,
2013-02-16 00:10:00,42.1,37.0,30.40,West,270,0.0,0.0,82,0.00,,,0.00,pywws,2013-02-16 05:10:00,
2013-02-16 00:15:00,41.7,36.9,30.40,South,180,0.0,0.0,83,0.00,,,0.00,pywws,2013-02-16 05:15:00,
2013-02-16 00:20:00,41.5,37.1,30.40,South,180,0.0,0.0,84,0.00,,,0.00,pywws,2013-02-16 05:20:00,
2013-02-16 00:25:00,41.4,36.9,30.40,South,180,0.0,0.0,84,0.00,,,0.00,pywws,2013-02-16 05:25:00,
2013-02-16 00:35:00,41.2,36.7,30.40,South,180,0.0,0.0,84,0.00,,,0.00,pywws,2013-02-16 05:35:00,
2013-02-16 00:40:00,40.8,36.4,30.41,SE,135,0.0,0.0,84,0.00,,,0.00,pywws,2013-02-16 05:40:00,
2013-02-16 00:45:00,41.0,36.8,30.42,SE,135,0.0,0.0,85,0.00,,,0.00,pywws,2013-02-16 05:45:00,
2013-02-16 00:50:00,41.0,36.8,30.42,SE,135,0.0,0.0,85,0.00,,,0.00,pywws,2013-02-16 05:50:00,
2013-02-16 00:55:00,40.8,36.7,30.42,SE,135,0.0,0.0,85,0.00,,,0.00,pywws,2013-02-16 05:55:00,
2013-02-16 01:05:00,40.6,36.5,30.42,SSE,158,0.0,0.0,85,0.00,,,0.00,pywws,2013-02-16 06:05:00,
2013-02-16 01:10:00,40.3,36.1,30.43,East,90,0.0,0.0,85,0.00,,,0.00,pywws,2013-02-16 06:10:00,
2013-02-16 01:15:00,40.1,36.0,30.43,East,90,0.0,0.0,85,0.00,,,0.00,pywws,2013-02-16 06:15:00,
2013-02-16 01:20:00,39.9,36.1,30.43,East,90,0.0,0.0,86,0.00,,,0.00,pywws,2013-02-16 06:20:00,
2013-02-16 01:25:00,39.6,35.7,30.43,East,90,0.0,0.0,86,0.00,,,0.00,pywws,2013-02-16 06:25:00,
2013-02-16 01:35:00,39.0,35.2,30.43,East,90,0.0,0.0,86,0.00,,,0.00,pywws,2013-02-16 06:35:00,
2013-02-16 01:40:00,39.2,35.7,30.44,South,180,0.0,0.0,87,0.00,,,0.00,pywws,2013-02-16 06:40:00,
2013-02-16 01:45:00,39.4,35.8,30.44,South,180,0.0,0.0,87,0.00,,,0.00,pywws,2013-02-16 06:45:00,
2013-02-16 01:50:00,39.7,36.2,30.44,South,180,0.0,0.0,87,0.00,,,0.00,pywws,2013-02-16 06:50:00,
2013-02-16 01:55:00,39.7,36.2,30.44,WNW,292,0.0,0.0,87,0.00,,,0.00,pywws,2013-02-16 06:55:00,
2013-02-16 02:05:00,39.7,36.5,30.45,WNW,292,0.0,0.0,88,0.00,,,0.00,pywws,2013-02-16 07:05:00,
2013-02-16 02:10:00,39.6,36.3,30.45,West,270,0.0,0.0,88,0.00,,,0.00,pywws,2013-02-16 07:10:00,
2013-02-16 02:15:00,39.4,36.1,30.45,West,270,0.0,0.0,88,0.00,,,0.00,pywws,2013-02-16 07:15:00,
2013-02-16 02:20:00,39.4,36.1,30.45,West,270,0.0,0.0,88,0.00,,,0.00,pywws,2013-02-16 07:20:00,
2013-02-16 02:25:00,39.4,36.1,30.46,West,270,0.0,0.0,88,0.00,,,0.00,pywws,2013-02-16 07:25:00,
2013-02-16 02:35:00,39.2,35.9,30.46,West,270,0.0,0.0,88,0.00,,,0.00,pywws,2013-02-16 07:35:00,
2013-02-16 02:40:00,39.0,35.8,30.46,West,270,0.0,0.0,88,0.00,,,0.00,pywws,2013-02-16 07:40:00,
2013-02-16 02:45:00,38.8,35.6,30.46,West,270,0.0,0.0,88,0.00,,,0.00,pywws,2013-02-16 07:45:00,
2013-02-16 02:50:00,38.8,35.6,30.47,West,270,0.0,0.0,88,0.00,,,0.00,pywws,2013-02-16 07:50:00,
2013-02-16 02:55:00,38.7,35.4,30.47,West,270,0.0,0.0,88,0.00,,,0.00,pywws,2013-02-16 07:55:00,
2013-02-16 03:05:00,38.5,35.2,30.47,West,270,0.0,0.0,88,0.00,,,0.00,pywws,2013-02-16 08:05:00,
2013-02-16 03:10:00,38.3,35.3,30.47,West,270,0.0,0.0,89,0.00,,,0.00,pywws,2013-02-16 08:10:00,
2013-02-16 03:15:00,38.3,35.3,30.48,West,270,0.0,0.0,89,0.00,,,0.00,pywws,2013-02-16 08:15:00,
2013-02-16 03:20:00,38.5,35.5,30.48,West,270,0.0,0.0,89,0.00,,,0.00,pywws,2013-02-16 08:20:00,
2013-02-16 03:25:00,38.3,35.3,30.48,West,270,0.0,0.0,89,0.00,,,0.00,pywws,2013-02-16 08:25:00,
2013-02-16 03:35:00,38.3,35.3,30.48,West,270,0.0,0.0,89,0.00,,,0.00,pywws,2013-02-16 08:35:00,
2013-02-16 03:40:00,38.1,35.2,30.49,West,270,0.0,0.0,89,0.00,,,0.00,pywws,2013-02-16 08:40:00,
2013-02-16 03:45:00,38.3,35.6,30.49,NE,45,0.0,0.0,90,0.00,,,0.00,pywws,2013-02-16 08:45:00,
2013-02-16 03:50:00,38.5,35.8,30.49,NE,45,0.0,0.0,90,0.00,,,0.00,pywws,2013-02-16 08:50:00,
2013-02-16 03:55:00,38.3,35.6,30.49,NE,45,0.0,0.0,90,0.00,,,0.00,pywws,2013-02-16 08:55:00,
2013-02-16 04:05:00,38.3,35.6,30.49,West,270,0.0,0.0,90,0.00,,,0.00,pywws,2013-02-16 09:05:00,
2013-02-16 04:10:00,38.1,35.5,30.50,NE,45,0.0,0.0,90,0.00,,,0.00,pywws,2013-02-16 09:10:00,
2013-02-16 04:15:00,38.1,35.5,30.49,West,270,0.0,0.0,90,0.00,,,0.00,pywws,2013-02-16 09:15:00,
2013-02-16 04:20:00,38.1,35.5,30.49,West,270,0.0,0.0,90,0.00,,,0.00,pywws,2013-02-16 09:20:00,
2013-02-16 04:25:00,37.9,35.3,30.48,SE,135,0.0,0.0,90,0.00,,,0.00,pywws,2013-02-16 09:25:00,
2013-02-16 04:35:00,37.9,35.3,30.47,NW,315,0.0,0.0,90,0.00,,,0.00,pywws,2013-02-16 09:35:00,
2013-02-16 04:40:00,38.1,35.5,30.46,West,270,0.0,0.0,90,0.00,,,0.00,pywws,2013-02-16 09:40:00,
2013-02-16 04:45:00,38.3,35.6,30.45,NW,315,0.0,0.0,90,0.00,,,0.00,pywws,2013-02-16 09:45:00,
2013-02-16 04:50:00,38.5,36.1,30.45,West,270,0.0,0.0,91,0.00,,,0.00,pywws,2013-02-16 09:50:00,
2013-02-16 04:55:00,38.5,35.8,30.44,West,270,0.0,0.0,90,0.00,,,0.00,pywws,2013-02-16 09:55:00,
2013-02-16 05:05:00,38.7,36.3,30.43,West,270,0.0,0.0,91,0.00,,,0.00,pywws,2013-02-16 10:05:00,
2013-02-16 05:10:00,38.8,36.4,30.42,West,270,0.0,0.0,91,0.00,,,0.00,pywws,2013-02-16 10:10:00,
2013-02-16 05:15:00,39.0,36.6,30.42,West,270,0.0,0.0,91,0.00,,,0.00,pywws,2013-02-16 10:15:00,
2013-02-16 05:20:00,39.2,36.5,30.41,West,270,0.0,0.0,90,0.00,,,0.00,pywws,2013-02-16 10:20:00,
2013-02-16 05:25:00,39.2,36.5,30.40,West,270,0.0,0.0,90,0.00,,,0.00,pywws,2013-02-16 10:25:00,
2013-02-16 05:35:00,39.2,36.5,30.40,West,270,0.0,0.0,90,0.00,,,0.00,pywws,2013-02-16 10:35:00,
2013-02-16 05:40:00,39.4,36.7,30.40,SE,135,0.0,0.0,90,0.00,,,0.00,pywws,2013-02-16 10:40:00,
2013-02-16 05:45:00,39.4,36.7,30.41,West,270,0.0,0.0,90,0.00,,,0.00,pywws,2013-02-16 10:45:00,
2013-02-16 05:50:00,39.4,36.7,30.41,NW,315,0.7,2.2,90,0.00,,,0.00,pywws,2013-02-16 10:50:00,
2013-02-16 05:55:00,39.6,36.9,30.42,West,270,0.7,1.6,90,0.00,,,0.00,pywws,2013-02-16 10:55:00,
2013-02-16 06:05:00,39.9,37.2,30.42,NW,315,1.6,3.1,90,0.00,,,0.00,pywws,2013-02-16 11:05:00,
2013-02-16 06:10:00,40.1,37.1,30.43,NW,315,0.7,2.2,89,0.00,,,0.00,pywws,2013-02-16 11:10:00,
2013-02-16 06:15:00,40.8,37.5,30.43,West,270,0.7,2.2,88,0.00,,,0.00,pywws,2013-02-16 11:15:00,
2013-02-16 06:20:00,40.6,37.4,30.43,NW,315,1.6,2.2,88,0.00,,,0.00,pywws,2013-02-16 11:20:00,
2013-02-16 06:25:00,41.2,37.6,30.44,West,270,0.7,1.6,87,0.00,,,0.00,pywws,2013-02-16 11:25:00,
2013-02-16 06:35:00,41.4,37.8,30.44,WNW,292,0.7,2.2,87,0.00,,,0.00,pywws,2013-02-16 11:35:00,
2013-02-16 06:40:00,41.5,37.4,30.44,NW,315,0.7,2.2,85,0.00,,,0.00,pywws,2013-02-16 11:40:00,
2013-02-16 06:45:00,42.1,37.6,30.43,NW,315,0.7,2.2,84,0.00,,,0.00,pywws,2013-02-16 11:45:00,
2013-02-16 06:50:00,42.3,37.2,30.43,West,270,1.6,3.1,82,0.00,,,0.00,pywws,2013-02-16 11:50:00,
2013-02-16 06:55:00,42.4,36.7,30.42,NW,315,1.6,3.1,80,0.00,,,0.00,pywws,2013-02-16 11:55:00,
2013-02-16 07:05:00,42.6,36.9,30.40,North,0,1.6,2.2,80,0.00,,,0.00,pywws,2013-02-16 12:05:00,
2013-02-16 07:10:00,42.6,36.6,30.38,SE,135,0.7,2.2,79,0.00,,,0.00,pywws,2013-02-16 12:10:00,
2013-02-16 07:15:00,42.6,36.6,30.37,East,90,0.0,2.2,79,0.00,,,0.00,pywws,2013-02-16 12:15:00,
2013-02-16 07:20:00,42.4,36.4,30.36,SE,135,0.0,1.6,79,0.00,,,0.00,pywws,2013-02-16 12:20:00,
2013-02-16 07:25:00,42.3,36.2,30.35,SW,225,2.2,3.1,79,0.00,,,0.00,pywws,2013-02-16 12:25:00,
2013-02-16 07:35:00,42.3,36.5,30.35,West,270,0.7,3.1,80,0.00,,,0.00,pywws,2013-02-16 12:35:00,
2013-02-16 07:40:00,42.3,36.5,30.35,NE,45,1.6,3.1,80,0.00,,,0.00,pywws,2013-02-16 12:40:00,
2013-02-16 07:45:00,42.3,36.9,30.35,North,0,1.6,3.1,81,0.00,,,0.00,pywws,2013-02-16 12:45:00,
2013-02-16 07:50:00,42.3,36.9,30.36,ESE,112,0.7,2.2,81,0.00,,,0.00,pywws,2013-02-16 12:50:00,
2013-02-16 07:55:00,42.4,37.0,30.36,West,270,0.7,2.2,81,0.00,,,0.00,pywws,2013-02-16 12:55:00,
2013-02-16 08:05:00,42.4,36.7,30.37,NW,315,1.6,3.8,80,0.00,,,0.00,pywws,2013-02-16 13:05:00,
2013-02-16 08:10:00,42.1,37.0,30.35,SW,225,0.7,2.2,82,0.00,,,0.00,pywws,2013-02-16 13:10:00,
2013-02-16 08:15:00,42.1,37.3,30.34,West,270,0.7,2.2,83,0.00,,,0.00,pywws,2013-02-16 13:15:00,
2013-02-16 08:20:00,41.4,36.9,30.33,West,270,1.6,2.2,84,0.01,,,0.01,pywws,2013-02-16 13:20:00,
2013-02-16 08:25:00,41.5,37.7,30.33,NW,315,2.2,3.8,86,0.01,,,0.01,pywws,2013-02-16 13:25:00,
2013-02-16 08:35:00,41.2,37.6,30.32,WNW,292,3.1,3.8,87,0.01,,,0.01,pywws,2013-02-16 13:35:00,
2013-02-16 08:40:00,41.0,37.7,30.30,NNW,338,1.6,3.1,88,0.01,,,0.01,pywws,2013-02-16 13:40:00,
2013-02-16 08:45:00,41.0,38.0,30.29,NW,315,0.7,2.2,89,0.01,,,0.01,pywws,2013-02-16 13:45:00,
2013-02-16 08:50:00,40.5,37.5,30.29,WNW,292,1.6,3.1,89,0.01,,,0.01,pywws,2013-02-16 13:50:00,
2013-02-16 09:05:00,41.0,38.3,30.27,NW,315,0.7,2.2,90,0.01,,,0.01,pywws,2013-02-16 14:05:00,
2013-02-16 09:10:00,41.0,38.6,30.26,West,270,1.6,3.1,91,0.01,,,0.01,pywws,2013-02-16 14:10:00,
2013-02-16 09:15:00,41.0,38.6,30.27,NW,315,1.6,2.2,91,0.02,,,0.02,pywws,2013-02-16 14:15:00,
2013-02-16 09:20:00,40.8,38.7,30.27,NW,315,3.1,5.4,92,0.01,,,0.02,pywws,2013-02-16 14:20:00,
2013-02-16 09:25:00,40.5,38.3,30.28,West,270,6.9,11.4,92,0.02,,,0.04,pywws,2013-02-16 14:25:00,
2013-02-16 09:35:00,40.1,37.7,30.28,North,0,1.6,3.1,91,0.04,,,0.05,pywws,2013-02-16 14:35:00,
2013-02-16 09:39:00,39.7,37.6,30.30,East,90,0.7,2.2,92,0.05,,,0.06,pywws,2013-02-16 14:39:00,
2013-02-16 09:44:00,39.4,37.3,30.30,West,270,1.6,3.8,92,0.06,,,0.07,pywws,2013-02-16 14:44:00,
2013-02-16 09:49:00,39.7,37.6,30.31,NW,315,1.6,3.1,92,0.06,,,0.07,pywws,2013-02-16 14:49:00,
2013-02-16 09:54:00,39.6,37.4,30.32,West,270,0.7,2.2,92,0.06,,,0.07,pywws,2013-02-16 14:54:00,
2013-02-16 10:05:00,39.2,37.1,30.32,NW,315,0.7,2.2,92,0.07,,,0.08,pywws,2013-02-16 15:05:00,
2013-02-16 10:10:00,39.6,37.4,30.33,NW,315,1.6,3.1,92,0.07,,,0.08,pywws,2013-02-16 15:10:00,
2013-02-16 10:15:00,39.7,37.9,30.33,West,270,1.6,2.2,93,0.07,,,0.09,pywws,2013-02-16 15:15:00,
2013-02-16 10:20:00,39.7,37.9,30.33,North,0,0.0,0.7,93,0.08,,,0.11,pywws,2013-02-16 15:20:00,
2013-02-16 10:25:00,39.6,37.7,30.32,WNW,292,1.6,3.1,93,0.08,,,0.12,pywws,2013-02-16 15:25:00,
2013-02-16 10:35:00,39.6,37.7,30.31,NW,315,0.7,2.2,93,0.08,,,0.13,pywws,2013-02-16 15:35:00,
2013-02-16 10:40:00,39.6,37.7,30.29,SW,225,0.7,1.6,93,0.11,,,0.17,pywws,2013-02-16 15:40:00,
2013-02-16 10:45:00,39.6,38.0,30.28,East,90,2.2,5.4,94,0.09,,,0.17,pywws,2013-02-16 15:45:00,
2013-02-16 10:50:00,39.4,37.8,30.28,West,270,1.6,2.2,94,0.11,,,0.18,pywws,2013-02-16 15:50:00,
2013-02-16 10:55:00,39.2,37.6,30.27,West,270,2.2,4.5,94,0.11,,,0.18,pywws,2013-02-16 15:55:00,
2013-02-16 11:05:00,39.6,37.7,30.27,West,270,0.0,2.2,93,0.09,,,0.18,pywws,2013-02-16 16:05:00,
2013-02-16 11:10:00,39.6,37.7,30.27,NE,45,0.7,2.2,93,0.09,,,0.18,pywws,2013-02-16 16:10:00,
2013-02-16 11:15:00,39.4,37.5,30.28,WNW,292,1.6,2.2,93,0.08,,,0.18,pywws,2013-02-16 16:15:00,
2013-02-16 11:20:00,39.9,38.1,30.28,SE,135,0.7,1.6,93,0.07,,,0.18,pywws,2013-02-16 16:20:00,
2013-02-16 11:25:00,39.7,37.9,30.29,West,270,1.6,2.2,93,0.06,,,0.18,pywws,2013-02-16 16:25:00,
2013-02-16 11:35:00,39.7,37.9,30.29,SE,135,0.0,0.7,93,0.05,,,0.18,pywws,2013-02-16 16:35:00,
2013-02-16 11:40:00,39.4,37.3,30.31,SE,135,0.0,0.0,92,0.01,,,0.18,pywws,2013-02-16 16:40:00,
2013-02-16 11:45:00,39.9,38.1,30.31,South,180,0.0,0.7,93,0.01,,,0.18,pywws,2013-02-16 16:45:00,
2013-02-16 11:50:00,39.9,37.8,30.32,West,270,0.0,1.6,92,0.00,,,0.18,pywws,2013-02-16 16:50:00,
2013-02-16 11:55:00,39.9,37.8,30.32,ENE,68,0.0,0.0,92,0.00,,,0.18,pywws,2013-02-16 16:55:00,
2013-02-16 12:05:00,40.1,38.0,30.32,West,270,0.7,1.6,92,0.00,,,0.18,pywws,2013-02-16 17:05:00,
2013-02-16 12:10:00,40.6,38.5,30.33,NW,315,0.0,0.7,92,0.00,,,0.18,pywws,2013-02-16 17:10:00,
2013-02-16 12:15:00,40.8,38.7,30.33,NW,315,0.0,0.7,92,0.00,,,0.18,pywws,2013-02-16 17:15:00,
2013-02-16 12:20:00,41.0,38.6,30.33,SW,225,0.0,1.6,91,0.00,,,0.18,pywws,2013-02-16 17:20:00,
2013-02-16 12:25:00,41.0,38.6,30.32,South,180,0.0,0.7,91,0.00,,,0.18,pywws,2013-02-16 17:25:00,
2013-02-16 12:35:00,41.4,38.9,30.31,SE,135,0.0,0.7,91,0.00,,,0.18,pywws,2013-02-16 17:35:00,
2013-02-16 12:40:00,41.5,38.8,30.29,East,90,0.0,1.6,90,0.00,,,0.18,pywws,2013-02-16 17:40:00,
2013-02-16 12:45:00,41.5,38.8,30.29,SE,135,0.0,0.7,90,0.00,,,0.18,pywws,2013-02-16 17:45:00,
2013-02-16 12:50:00,41.5,38.3,30.28,SW,225,0.7,2.2,88,0.00,,,0.18,pywws,2013-02-16 17:50:00,
2013-02-16 12:55:00,41.5,38.3,30.27,SW,225,0.0,0.0,88,0.00,,,0.18,pywws,2013-02-16 17:55:00,
2013-02-16 13:05:00,41.5,38.0,30.27,West,270,2.2,3.1,87,0.00,,,0.18,pywws,2013-02-16 18:05:00,
2013-02-16 13:09:00,42.4,38.6,30.27,SE,135,0.0,0.7,86,0.00,,,0.18,pywws,2013-02-16 18:09:00,
2013-02-16 13:14:00,42.8,38.6,30.28,SW,225,0.0,1.6,85,0.00,,,0.18,pywws,2013-02-16 18:14:00,
2013-02-16 13:19:00,43.0,38.2,30.29,West,270,1.6,4.5,83,0.00,,,0.18,pywws,2013-02-16 18:19:00,
2013-02-16 13:24:00,42.8,37.7,30.29,SE,135,0.7,1.6,82,0.00,,,0.18,pywws,2013-02-16 18:24:00,
2013-02-16 13:35:00,43.2,38.4,30.30,South,180,0.7,2.2,83,0.00,,,0.18,pywws,2013-02-16 18:35:00,
2013-02-16 13:39:00,42.6,37.5,30.31,SW,225,1.6,3.8,82,0.00,,,0.18,pywws,2013-02-16 18:39:00,
2013-02-16 13:44:00,43.0,38.2,30.31,South,180,0.0,0.0,83,0.00,,,0.18,pywws,2013-02-16 18:44:00,
2013-02-16 13:49:00,43.5,38.7,30.32,SE,135,0.0,1.6,83,0.00,,,0.18,pywws,2013-02-16 18:49:00,
2013-02-16 13:54:00,44.2,39.1,30.32,SW,225,0.0,0.7,82,0.00,,,0.18,pywws,2013-02-16 18:54:00,
2013-02-16 14:05:00,44.8,38.0,30.32,SSE,158,1.6,3.8,77,0.00,,,0.18,pywws,2013-02-16 19:05:00,
2013-02-16 14:10:00,44.6,36.8,30.32,SE,135,0.7,3.1,74,0.00,,,0.18,pywws,2013-02-16 19:10:00,
2013-02-16 14:15:00,45.5,37.4,30.33,WNW,292,2.2,4.5,73,0.00,,,0.18,pywws,2013-02-16 19:15:00,
2013-02-16 14:20:00,45.1,35.9,30.32,NW,315,3.1,5.4,70,0.00,,,0.18,pywws,2013-02-16 19:20:00,
2013-02-16 14:25:00,44.4,35.6,30.32,South,180,0.7,2.2,71,0.00,,,0.18,pywws,2013-02-16 19:25:00,
2013-02-16 14:35:00,44.4,36.3,30.31,South,180,1.6,3.8,73,0.00,,,0.18,pywws,2013-02-16 19:35:00,
2013-02-16 14:40:00,44.8,36.3,30.29,SE,135,1.6,3.1,72,0.00,,,0.18,pywws,2013-02-16 19:40:00,
2013-02-16 14:45:00,44.8,36.3,30.28,West,270,1.6,3.1,72,0.00,,,0.18,pywws,2013-02-16 19:45:00,
2013-02-16 14:50:00,44.6,35.8,30.27,West,270,2.2,3.8,71,0.00,,,0.18,pywws,2013-02-16 19:50:00,
2013-02-16 14:55:00,44.2,35.4,30.26,West,270,0.7,1.6,71,0.00,,,0.18,pywws,2013-02-16 19:55:00,
2013-02-16 15:05:00,44.2,35.4,30.26,SE,135,3.1,4.5,71,0.00,,,0.18,pywws,2013-02-16 20:05:00,
2013-02-16 15:10:00,44.4,36.0,30.27,East,90,1.6,2.2,72,0.00,,,0.18,pywws,2013-02-16 20:10:00,
2013-02-16 15:15:00,44.4,35.6,30.28,West,270,0.7,3.1,71,0.00,,,0.18,pywws,2013-02-16 20:15:00,
2013-02-16 15:20:00,44.6,35.8,30.28,West,270,1.6,3.1,71,0.00,,,0.18,pywws,2013-02-16 20:20:00,
2013-02-16 15:25:00,45.5,36.7,30.29,West,270,2.2,4.5,71,0.00,,,0.18,pywws,2013-02-16 20:25:00,
2013-02-16 15:35:00,46.6,36.6,30.29,SW,225,0.7,3.8,68,0.00,,,0.18,pywws,2013-02-16 20:35:00,
2013-02-16 15:39:00,49.5,33.0,30.30,West,270,4.5,6.9,53,0.00,,,0.18,pywws,2013-02-16 20:39:00,
2013-02-16 15:44:00,50.0,27.2,30.30,WSW,248,8.3,12.1,41,0.00,,,0.18,pywws,2013-02-16 20:44:00,
2013-02-16 15:49:00,50.2,24.9,30.31,NW,315,5.4,7.6,37,0.00,,,0.18,pywws,2013-02-16 20:49:00,
2013-02-16 15:54:00,49.6,23.8,30.31,NE,45,6.0,9.8,36,0.00,,,0.18,pywws,2013-02-16 20:54:00,
2013-02-16 16:05:00,49.1,24.6,30.31,NW,315,8.3,12.1,38,0.00,,,0.18,pywws,2013-02-16 21:05:00,
2013-02-16 16:10:00,46.8,23.7,30.31,NW,315,4.5,6.9,40,0.00,,,0.18,pywws,2013-02-16 21:10:00,
2013-02-16 16:15:00,47.1,22.2,30.32,West,270,6.0,10.7,37,0.00,,,0.18,pywws,2013-02-16 21:15:00,
2013-02-16 16:20:00,46.6,23.0,30.32,West,270,4.5,8.3,39,0.00,,,0.18,pywws,2013-02-16 21:20:00,
2013-02-16 16:25:00,46.0,21.2,30.32,West,270,6.0,9.2,37,0.00,,,0.18,pywws,2013-02-16 21:25:00,
2013-02-16 16:35:00,47.1,22.2,30.32,NW,315,4.5,11.4,37,0.00,,,0.18,pywws,2013-02-16 21:35:00,
2013-02-16 16:40:00,48.0,19.6,30.33,West,270,6.0,18.3,32,0.01,,,0.19,pywws,2013-02-16 21:40:00,
2013-02-16 16:45:00,46.9,17.1,30.33,NW,315,6.0,9.8,30,0.01,,,0.19,pywws,2013-02-16 21:45:00,
2013-02-16 16:50:00,46.4,18.2,30.33,WNW,292,6.0,8.3,32,0.01,,,0.19,pywws,2013-02-16 21:50:00,
2013-02-16 16:55:00,45.7,18.9,30.34,West,270,3.8,6.0,34,0.01,,,0.19,pywws,2013-02-16 21:55:00,
2013-02-16 17:05:00,45.5,18.1,30.34,WNW,292,5.4,8.3,33,0.01,,,0.19,pywws,2013-02-16 22:05:00,
2013-02-16 17:10:00,45.3,16.5,30.34,West,270,8.3,12.1,31,0.01,,,0.19,pywws,2013-02-16 22:10:00,
2013-02-16 17:15:00,45.7,17.5,30.34,NW,315,6.9,12.1,32,0.01,,,0.19,pywws,2013-02-16 22:15:00,
2013-02-16 17:20:00,45.3,17.9,30.34,North,0,6.0,9.8,33,0.01,,,0.19,pywws,2013-02-16 22:20:00,
2013-02-16 17:25:00,45.1,17.1,30.34,West,270,6.9,13.0,32,0.01,,,0.19,pywws,2013-02-16 22:25:00,
2013-02-16 17:35:00,44.8,17.5,30.34,NW,315,5.4,8.3,33,0.01,,,0.19,pywws,2013-02-16 22:35:00,
2013-02-16 17:39:00,44.1,16.8,30.35,NW,315,6.0,12.1,33,0.00,,,0.19,pywws,2013-02-16 22:39:00,
2013-02-16 17:44:00,44.1,16.8,30.35,NW,315,6.0,8.3,33,0.00,,,0.19,pywws,2013-02-16 22:44:00,
2013-02-16 17:49:00,43.7,16.5,30.36,West,270,3.8,6.9,33,0.00,,,0.19,pywws,2013-02-16 22:49:00,
2013-02-16 17:54:00,43.3,16.2,30.36,West,270,9.8,15.2,33,0.00,,,0.19,pywws,2013-02-16 22:54:00,
2013-02-16 18:05:00,43.2,16.0,30.36,WSW,248,6.9,12.1,33,0.00,,,0.19,pywws,2013-02-16 23:05:00,
2013-02-16 18:09:00,43.0,16.6,30.37,WNW,292,3.8,8.3,34,0.00,,,0.19,pywws,2013-02-16 23:09:00,
2013-02-16 18:14:00,42.8,17.1,30.37,NW,315,3.8,7.6,35,0.00,,,0.19,pywws,2013-02-16 23:14:00,
2013-02-16 18:19:00,42.8,15.0,30.37,NW,315,11.4,13.6,32,0.00,,,0.19,pywws,2013-02-16 23:19:00,
2013-02-16 18:24:00,42.6,15.6,30.37,North,0,8.3,13.0,33,0.00,,,0.19,pywws,2013-02-16 23:24:00,
2013-02-16 18:35:00,42.4,15.4,30.37,West,270,4.5,9.8,33,0.00,,,0.19,pywws,2013-02-16 23:35:00,
2013-02-16 18:39:00,42.1,14.4,30.38,West,270,5.4,9.8,32,0.00,,,0.19,pywws,2013-02-16 23:39:00,
2013-02-16 18:44:00,41.9,14.2,30.38,West,270,7.6,16.8,32,0.00,,,0.19,pywws,2013-02-16 23:44:00,
2013-02-16 18:49:00,41.7,14.8,30.38,NW,315,6.9,13.0,33,0.00,,,0.19,pywws,2013-02-16 23:49:00,
2013-02-16 18:54:00,41.5,14.6,30.37,NW,315,4.5,6.0,33,0.00,,,0.19,pywws,2013-02-16 23:54:00,
2013-02-16 19:05:00,41.4,14.4,30.36,West,270,3.8,8.3,33,0.00,,,0.19,pywws,2013-02-17 00:05:00,
2013-02-16 19:09:00,41.2,15.0,30.34,West,270,7.6,9.8,34,0.00,,,0.19,pywws,2013-02-17 00:09:00,
2013-02-16 19:14:00,40.5,14.3,30.33,NW,315,5.4,8.3,34,0.00,,,0.19,pywws,2013-02-17 00:14:00,
2013-02-16 19:19:00,40.8,14.6,30.32,WNW,292,6.0,10.7,34,0.00,,,0.19,pywws,2013-02-17 00:19:00,
2013-02-16 19:24:00,40.1,14.7,30.32,NW,315,5.4,9.8,35,0.00,,,0.19,pywws,2013-02-17 00:24:00,
2013-02-16 19:35:00,40.3,14.8,30.31,NW,315,5.4,9.2,35,0.00,,,0.19,pywws,2013-02-17 00:35:00,
2013-02-16 19:39:00,39.9,14.5,30.32,West,270,3.1,7.6,35,0.00,,,0.19,pywws,2013-02-17 00:39:00,
2013-02-16 19:44:00,39.4,14.0,30.32,East,90,5.4,10.7,35,0.00,,,0.19,pywws,2013-02-17 00:44:00,
2013-02-16 19:49:00,39.6,14.2,30.32,NW,315,6.0,9.2,35,0.00,,,0.19,pywws,2013-02-17 00:49:00,
2013-02-16 19:54:00,39.2,13.9,30.33,SW,225,5.4,6.9,35,0.00,,,0.19,pywws,2013-02-17 00:54:00,
2013-02-16 20:05:00,38.8,13.6,30.33,West,270,6.0,9.2,35,0.00,,,0.19,pywws,2013-02-17 01:05:00,
2013-02-16 20:10:00,38.5,13.9,30.34,NW,315,4.5,9.2,36,0.00,,,0.19,pywws,2013-02-17 01:10:00,
2013-02-16 20:15:00,38.5,13.2,30.35,WSW,248,4.5,8.3,35,0.00,,,0.19,pywws,2013-02-17 01:15:00,
2013-02-16 20:20:00,38.3,13.1,30.36,West,270,5.4,7.6,35,0.00,,,0.19,pywws,2013-02-17 01:20:00,
2013-02-16 20:25:00,38.3,13.1,30.36,NW,315,7.6,13.6,35,0.00,,,0.19,pywws,2013-02-17 01:25:00,
2013-02-16 20:35:00,38.1,13.6,30.37,NW,315,4.5,6.9,36,0.00,,,0.19,pywws,2013-02-17 01:35:00,
2013-02-16 20:40:00,37.8,13.9,30.37,West,270,3.8,6.9,37,0.00,,,0.19,pywws,2013-02-17 01:40:00,
2013-02-16 20:45:00,37.6,14.3,30.37,West,270,3.1,6.0,38,0.00,,,0.19,pywws,2013-02-17 01:45:00,
2013-02-16 20:50:00,37.2,14.0,30.37,NW,315,4.5,8.3,38,0.00,,,0.19,pywws,2013-02-17 01:50:00,
2013-02-16 20:55:00,37.0,14.4,30.37,NW,315,3.1,5.4,39,0.00,,,0.19,pywws,2013-02-17 01:55:00,
2013-02-16 21:05:00,36.9,14.2,30.35,NW,315,4.5,7.6,39,0.00,,,0.19,pywws,2013-02-17 02:05:00,
2013-02-16 21:10:00,36.7,14.7,30.33,NW,315,3.8,5.4,40,0.00,,,0.19,pywws,2013-02-17 02:10:00,
2013-02-16 21:15:00,36.5,15.1,30.32,NW,315,2.2,5.4,41,0.00,,,0.19,pywws,2013-02-17 02:15:00,
2013-02-16 21:20:00,36.5,14.5,30.32,West,270,6.0,9.8,40,0.00,,,0.19,pywws,2013-02-17 02:20:00,
2013-02-16 21:25:00,36.3,14.9,30.32,NW,315,3.8,9.2,41,0.00,,,0.19,pywws,2013-02-17 02:25:00,
2013-02-16 21:35:00,36.3,14.9,30.31,West,270,5.4,7.6,41,0.00,,,0.19,pywws,2013-02-17 02:35:00,
2013-02-16 21:40:00,36.0,14.6,30.32,WNW,292,7.6,12.1,41,0.00,,,0.19,pywws,2013-02-17 02:40:00,
2013-02-16 21:45:00,36.0,14.6,30.32,NW,315,6.0,8.3,41,0.00,,,0.19,pywws,2013-02-17 02:45:00,
2013-02-16 21:50:00,35.8,14.4,30.33,WSW,248,6.0,8.3,41,0.00,,,0.19,pywws,2013-02-17 02:50:00,
2013-02-16 21:55:00,35.8,13.9,30.33,NW,315,5.4,8.3,40,0.00,,,0.19,pywws,2013-02-17 02:55:00,
2013-02-16 22:05:00,35.8,13.9,30.34,NW,315,5.4,9.8,40,0.00,,,0.19,pywws,2013-02-17 03:05:00,
2013-02-16 22:10:00,35.6,13.7,30.35,West,270,6.9,11.4,40,0.00,,,0.19,pywws,2013-02-17 03:10:00,
2013-02-16 22:15:00,35.4,14.1,30.36,West,270,4.5,7.6,41,0.00,,,0.19,pywws,2013-02-17 03:15:00,
2013-02-16 22:20:00,35.2,13.9,30.37,NW,315,4.5,8.3,41,0.00,,,0.19,pywws,2013-02-17 03:20:00,
2013-02-16 22:25:00,35.1,13.8,30.37,NW,315,6.9,10.7,41,0.00,,,0.19,pywws,2013-02-17 03:25:00,
2013-02-16 22:35:00,35.1,14.3,30.37,NW,315,3.8,9.2,42,0.00,,,0.19,pywws,2013-02-17 03:35:00,
2013-02-16 22:40:00,34.7,14.5,30.38,NW,315,3.8,6.9,43,0.00,,,0.19,pywws,2013-02-17 03:40:00,
2013-02-16 22:45:00,34.7,14.5,30.39,NW,315,3.8,7.6,43,0.00,,,0.19,pywws,2013-02-17 03:45:00,
2013-02-16 22:50:00,34.5,14.4,30.39,West,270,3.8,5.4,43,0.00,,,0.19,pywws,2013-02-17 03:50:00,
2013-02-16 22:55:00,34.3,14.7,30.40,West,270,5.4,9.8,44,0.00,,,0.19,pywws,2013-02-17 03:55:00,
2013-02-16 23:05:00,34.3,14.7,30.40,West,270,4.5,6.9,44,0.00,,,0.19,pywws,2013-02-17 04:05:00,
2013-02-16 23:10:00,34.2,15.1,30.41,NNW,338,3.1,4.5,45,0.00,,,0.19,pywws,2013-02-17 04:10:00,
2013-02-16 23:15:00,34.0,15.4,30.42,West,270,2.2,3.8,46,0.00,,,0.19,pywws,2013-02-17 04:15:00,
2013-02-16 23:20:00,33.8,14.7,30.42,West,270,6.9,13.0,45,0.00,,,0.19,pywws,2013-02-17 04:20:00,
2013-02-16 23:25:00,33.8,15.2,30.42,NW,315,3.8,5.4,46,0.00,,,0.19,pywws,2013-02-17 04:25:00,
2013-02-16 23:35:00,33.8,15.2,30.43,NW,315,3.8,6.9,46,0.00,,,0.19,pywws,2013-02-17 04:35:00,
2013-02-16 23:40:00,33.6,15.1,30.44,West,270,3.1,5.4,46,0.00,,,0.19,pywws,2013-02-17 04:40:00,
2013-02-16 23:45:00,33.4,14.9,30.44,NW,315,3.1,6.0,46,0.00,,,0.19,pywws,2013-02-17 04:45:00,
2013-02-16 23:55:00,33.3,15.2,30.45,West,270,5.4,8.3,47,0.00,,,0.19,pywws,2013-02-17 04:55:00,